SWA2775 KLAX-KLAS

Flight info

Callsign SWA2775
Flight time 0h 46m
Altitude 25000
Route ORCKA5 MISEN RNDRZ4
Aircraft B38M/M-SADE2E3GHIJ4J7P2RWZ/LB1D1

Departure

Time 2026-05-07 16:20
Airport Los Angeles International Airport (KLAX)

Arrival

Time 2026-05-07 17:07
Airport Harry Reid International Airport (KLAS)
Time Latitude Longitude Altitude Speed Heading
2026-05-07 15:51 33.94730 -118.40064 97 ft 0 kts 263°
2026-05-07 16:11 33.94730 -118.40057 95 ft 4 kts 261°
2026-05-07 16:11 33.94736 -118.40032 96 ft 4 kts 285°
2026-05-07 16:11 33.94725 -118.40012 97 ft 4 kts 327°
2026-05-07 16:12 33.94703 -118.40010 96 ft 4 kts 17°
2026-05-07 16:12 33.94688 -118.40014 95 ft 0 kts
2026-05-07 16:18 33.94706 -118.40014 96 ft 8 kts
2026-05-07 16:18 33.94804 -118.40005 97 ft 14 kts 356°
2026-05-07 16:18 33.94853 -118.40062 97 ft 10 kts 311°
2026-05-07 16:19 33.94914 -118.40054 97 ft 12 kts 65°
2026-05-07 16:19 33.94931 -118.39953 95 ft 12 kts 66°
2026-05-07 16:19 33.94997 -118.39911 95 ft 12 kts 357°
2026-05-07 16:19 33.95036 -118.40012 97 ft 22 kts 263°
2026-05-07 16:20 33.94994 -118.40414 99 ft 84 kts 263°
2026-05-07 16:20 33.94893 -118.41384 100 ft 146 kts 263°
2026-05-07 16:20 33.94769 -118.42722 491 ft 163 kts 264°
2026-05-07 16:20 33.94640 -118.44085 1265 ft 167 kts 263°
2026-05-07 16:21 33.94490 -118.45464 1884 ft 177 kts 262°
2026-05-07 16:21 33.94323 -118.46971 2559 ft 187 kts 263°
2026-05-07 16:21 33.94145 -118.48603 3176 ft 206 kts 264°
2026-05-07 16:21 33.93945 -118.50385 3816 ft 225 kts 263°
2026-05-07 16:22 33.93715 -118.52347 4374 ft 247 kts 263°
2026-05-07 16:22 33.93467 -118.54427 5232 ft 253 kts 262°
2026-05-07 16:22 33.93207 -118.56505 6292 ft 251 kts 262°
2026-05-07 16:22 33.92974 -118.58610 7136 ft 257 kts 263°
2026-05-07 16:23 33.92738 -118.60788 7899 ft 267 kts 262°
2026-05-07 16:23 33.92370 -118.62997 8793 ft 270 kts 248°
2026-05-07 16:23 33.91348 -118.64910 9574 ft 279 kts 222°
2026-05-07 16:23 33.89692 -118.66168 10222 ft 287 kts 195°
2026-05-07 16:24 33.87707 -118.66408 10932 ft 292 kts 168°
2026-05-07 16:24 33.85834 -118.65490 11655 ft 295 kts 139°
2026-05-07 16:24 33.84562 -118.63628 12509 ft 293 kts 110°
2026-05-07 16:24 33.84185 -118.61255 13415 ft 292 kts 82°
2026-05-07 16:25 33.84816 -118.58947 14249 ft 294 kts 56°
2026-05-07 16:25 33.86132 -118.57028 15200 ft 292 kts 45°
2026-05-07 16:25 33.87448 -118.55263 16386 ft 284 kts 51°
2026-05-07 16:25 33.88572 -118.53288 17213 ft 291 kts 58°
2026-05-07 16:26 33.89581 -118.51137 17935 ft 298 kts 60°
2026-05-07 16:26 33.90592 -118.48912 18742 ft 300 kts 59°
2026-05-07 16:26 33.91638 -118.46717 19463 ft 304 kts 58°
2026-05-07 16:26 33.92695 -118.44548 20221 ft 303 kts 58°
2026-05-07 16:27 33.93745 -118.42459 21045 ft 302 kts 55°
2026-05-07 16:27 33.94957 -118.40306 21498 ft 314 kts 53°
2026-05-07 16:27 33.96235 -118.38097 21838 ft 328 kts 53°
2026-05-07 16:27 33.97549 -118.35795 22379 ft 334 kts 54°
2026-05-07 16:28 33.98860 -118.33476 23085 ft 337 kts 54°
2026-05-07 16:28 34.00166 -118.31156 23677 ft 341 kts 54°
2026-05-07 16:28 34.01511 -118.28784 24195 ft 345 kts 53°
2026-05-07 16:28 34.02872 -118.26387 24708 ft 348 kts 53°
2026-05-07 16:29 34.04251 -118.23956 25010 ft 354 kts 53°
2026-05-07 16:29 34.05660 -118.21468 25060 ft 367 kts 53°
2026-05-07 16:29 34.07132 -118.18867 25057 ft 384 kts 54°
2026-05-07 16:29 34.08667 -118.16153 25045 ft 400 kts 54°
2026-05-07 16:30 34.10268 -118.13320 25047 ft 417 kts 54°
2026-05-07 16:30 34.11931 -118.10375 25052 ft 433 kts 54°
2026-05-07 16:30 34.13651 -118.07326 25068 ft 447 kts 54°
2026-05-07 16:30 34.15427 -118.04177 25073 ft 458 kts 54°
2026-05-07 16:31 34.17184 -118.01056 25073 ft 463 kts 54°
2026-05-07 16:31 34.18548 -117.98631 25086 ft 464 kts 54°
2026-05-07 16:31 34.20346 -117.95436 25090 ft 463 kts 54°
2026-05-07 16:31 34.22120 -117.92278 25103 ft 465 kts 54°
2026-05-07 16:32 34.23931 -117.89051 25107 ft 464 kts 54°
2026-05-07 16:32 34.25741 -117.85822 25087 ft 464 kts 54°
2026-05-07 16:32 34.27328 -117.82989 25091 ft 465 kts 54°
2026-05-07 16:32 34.29141 -117.79751 25086 ft 465 kts 54°
2026-05-07 16:33 34.30900 -117.76608 25090 ft 465 kts 54°
2026-05-07 16:33 34.32709 -117.73371 25070 ft 465 kts 54°
2026-05-07 16:33 34.34240 -117.70632 25071 ft 465 kts 53°
2026-05-07 16:33 34.36131 -117.67473 25067 ft 464 kts 52°
2026-05-07 16:34 34.38015 -117.64348 25071 ft 464 kts 52°
2026-05-07 16:34 34.39904 -117.61187 25069 ft 464 kts 52°
2026-05-07 16:34 34.41794 -117.58018 25062 ft 464 kts 52°
2026-05-07 16:34 34.43685 -117.54843 25052 ft 464 kts 52°
2026-05-07 16:35 34.45569 -117.51676 25127 ft 464 kts 52°
2026-05-07 16:35 34.47452 -117.48508 25140 ft 463 kts 52°
2026-05-07 16:35 34.49334 -117.45342 25158 ft 463 kts 52°
2026-05-07 16:35 34.51215 -117.42171 25165 ft 463 kts 52°
2026-05-07 16:36 34.53093 -117.39003 25165 ft 463 kts 52°
2026-05-07 16:36 34.54949 -117.35870 25163 ft 463 kts 52°
2026-05-07 16:36 34.56824 -117.32700 25166 ft 463 kts 52°
2026-05-07 16:36 34.58699 -117.29530 25161 ft 463 kts 52°
2026-05-07 16:37 34.60578 -117.26350 25159 ft 463 kts 52°
2026-05-07 16:37 34.62451 -117.23176 25149 ft 463 kts 52°
2026-05-07 16:37 34.64324 -117.20001 25133 ft 463 kts 52°
2026-05-07 16:37 34.66196 -117.16823 25049 ft 463 kts 52°
2026-05-07 16:38 34.68069 -117.13641 25050 ft 463 kts 52°
2026-05-07 16:38 34.69943 -117.10455 25061 ft 463 kts 52°
2026-05-07 16:38 34.71811 -117.07277 25061 ft 463 kts 53°
2026-05-07 16:38 34.73683 -117.04087 25062 ft 463 kts 53°
2026-05-07 16:39 34.75552 -117.00901 25068 ft 463 kts 53°
2026-05-07 16:39 34.77423 -116.97709 25072 ft 463 kts 53°
2026-05-07 16:39 34.79291 -116.94519 25080 ft 463 kts 53°
2026-05-07 16:39 34.81155 -116.91332 25088 ft 463 kts 53°
2026-05-07 16:40 34.83009 -116.88161 24864 ft 456 kts 53°
2026-05-07 16:40 34.84839 -116.85027 24660 ft 453 kts 53°
2026-05-07 16:40 34.86661 -116.81903 24434 ft 452 kts 53°
2026-05-07 16:40 34.88478 -116.78789 24219 ft 450 kts 53°
2026-05-07 16:41 34.90288 -116.75681 24101 ft 450 kts 53°
2026-05-07 16:41 34.92089 -116.72558 24092 ft 450 kts 53°
2026-05-07 16:41 34.93861 -116.69417 24085 ft 450 kts 53°
2026-05-07 16:41 34.95638 -116.66274 24079 ft 450 kts 53°
2026-05-07 16:42 34.97418 -116.63127 24069 ft 450 kts 53°
2026-05-07 16:42 34.99193 -116.59985 24057 ft 450 kts 53°
2026-05-07 16:42 35.00972 -116.56835 24048 ft 450 kts 53°
2026-05-07 16:42 35.02746 -116.53691 24041 ft 450 kts 53°
2026-05-07 16:43 35.04519 -116.50546 24031 ft 450 kts 53°
2026-05-07 16:43 35.06271 -116.47436 24017 ft 450 kts 53°
2026-05-07 16:43 35.08066 -116.44246 24010 ft 450 kts 53°
2026-05-07 16:43 35.09803 -116.41168 23878 ft 438 kts 52°
2026-05-07 16:44 35.11820 -116.38355 23034 ft 434 kts 45°
2026-05-07 16:44 35.13857 -116.35720 22219 ft 431 kts 45°
2026-05-07 16:44 35.15903 -116.33067 21445 ft 428 kts 45°
2026-05-07 16:44 35.17937 -116.30435 20660 ft 424 kts 46°
2026-05-07 16:45 35.19958 -116.27819 19911 ft 421 kts 46°
2026-05-07 16:45 35.21957 -116.25222 19236 ft 418 kts 47°
2026-05-07 16:45 35.23877 -116.22607 19070 ft 414 kts 47°
2026-05-07 16:45 35.25810 -116.19969 19009 ft 417 kts 47°
2026-05-07 16:46 35.27745 -116.17332 19012 ft 417 kts 47°
2026-05-07 16:46 35.29687 -116.14686 19012 ft 417 kts 47°
2026-05-07 16:46 35.31619 -116.12050 18745 ft 411 kts 47°
2026-05-07 16:46 35.33565 -116.09377 17501 ft 423 kts 48°
2026-05-07 16:47 35.35497 -116.06722 16675 ft 413 kts 48°
2026-05-07 16:47 35.37395 -116.04113 16014 ft 408 kts 48°
2026-05-07 16:47 35.39265 -116.01541 15387 ft 397 kts 48°
2026-05-07 16:47 35.41068 -115.99058 14476 ft 386 kts 48°
2026-05-07 16:48 35.42836 -115.96622 13499 ft 378 kts 48°
2026-05-07 16:48 35.44540 -115.94274 13198 ft 354 kts 48°
2026-05-07 16:48 35.46105 -115.92115 13188 ft 325 kts 48°
2026-05-07 16:48 35.47551 -115.90118 13186 ft 301 kts 48°
2026-05-07 16:49 35.48921 -115.88226 13139 ft 295 kts 48°
2026-05-07 16:49 35.50282 -115.86346 13018 ft 293 kts 48°
2026-05-07 16:49 35.51632 -115.84479 12966 ft 293 kts 48°
2026-05-07 16:49 35.52984 -115.82608 12956 ft 293 kts 48°
2026-05-07 16:50 35.54334 -115.80740 12946 ft 293 kts 48°
2026-05-07 16:50 35.55683 -115.78871 12954 ft 293 kts 48°
2026-05-07 16:50 35.57036 -115.76997 12950 ft 293 kts 48°
2026-05-07 16:50 35.58385 -115.75127 12958 ft 293 kts 48°
2026-05-07 16:51 35.59751 -115.73268 12969 ft 293 kts 47°
2026-05-07 16:51 35.60658 -115.72046 12960 ft 293 kts 47°
2026-05-07 16:51 35.62492 -115.69574 12954 ft 292 kts 47°
2026-05-07 16:51 35.63399 -115.68347 12962 ft 292 kts 47°
2026-05-07 16:52 35.64766 -115.66500 12968 ft 292 kts 47°
2026-05-07 16:52 35.66136 -115.64647 12959 ft 292 kts 47°
2026-05-07 16:52 35.67503 -115.62796 12982 ft 293 kts 47°
2026-05-07 16:52 35.68870 -115.60944 12957 ft 292 kts 47°
2026-05-07 16:53 35.70239 -115.59089 12973 ft 293 kts 47°
2026-05-07 16:53 35.71606 -115.57235 12977 ft 293 kts 47°
2026-05-07 16:53 35.73047 -115.55480 12950 ft 292 kts 35°
2026-05-07 16:53 35.74800 -115.54222 12982 ft 293 kts 30°
2026-05-07 16:54 35.76566 -115.52972 12959 ft 293 kts 30°
2026-05-07 16:54 35.78334 -115.51726 12967 ft 293 kts 30°
2026-05-07 16:54 35.80099 -115.50486 12981 ft 292 kts 30°
2026-05-07 16:54 35.81866 -115.49245 12975 ft 292 kts 30°
2026-05-07 16:55 35.83635 -115.48004 12991 ft 293 kts 30°
2026-05-07 16:55 35.85401 -115.46765 12979 ft 292 kts 30°
2026-05-07 16:55 35.87167 -115.45525 12984 ft 292 kts 30°
2026-05-07 16:55 35.88929 -115.44288 12983 ft 292 kts 30°
2026-05-07 16:56 35.90691 -115.43051 12952 ft 290 kts 30°
2026-05-07 16:56 35.92444 -115.41829 12762 ft 290 kts 30°
2026-05-07 16:56 35.95960 -115.39375 12311 ft 290 kts 30°
2026-05-07 16:57 35.97687 -115.38168 12068 ft 289 kts 30°
2026-05-07 16:57 35.99418 -115.36920 11803 ft 288 kts 35°
2026-05-07 16:57 36.00763 -115.35106 11482 ft 289 kts 60°
2026-05-07 16:57 36.01355 -115.32741 11222 ft 291 kts 83°
2026-05-07 16:58 36.01315 -115.30247 11100 ft 290 kts 90°
2026-05-07 16:58 36.01220 -115.27791 10967 ft 283 kts 91°
2026-05-07 16:58 36.01117 -115.25371 10627 ft 283 kts 91°
2026-05-07 16:58 36.01005 -115.22947 10316 ft 282 kts 91°
2026-05-07 16:59 36.00889 -115.20544 10039 ft 279 kts 91°
2026-05-07 16:59 36.00772 -115.18164 9764 ft 276 kts 91°
2026-05-07 16:59 36.00656 -115.15816 9516 ft 272 kts 91°
2026-05-07 16:59 36.00539 -115.13502 9281 ft 268 kts 91°
2026-05-07 17:00 36.00424 -115.11225 9077 ft 262 kts 91°
2026-05-07 17:00 36.00312 -115.09004 8868 ft 258 kts 91°
2026-05-07 17:00 36.00200 -115.06800 8602 ft 256 kts 91°
2026-05-07 17:00 36.00089 -115.04623 8358 ft 253 kts 92°
2026-05-07 17:01 35.99977 -115.02462 8122 ft 250 kts 92°
2026-05-07 17:01 35.99920 -115.00343 7919 ft 245 kts 88°
2026-05-07 17:01 35.99907 -114.98227 7534 ft 248 kts 89°
2026-05-07 17:01 35.99888 -114.96089 7180 ft 251 kts 89°
2026-05-07 17:02 35.99914 -114.93895 6598 ft 263 kts 81°
2026-05-07 17:02 36.00652 -114.91873 6157 ft 263 kts 47°
2026-05-07 17:02 36.02130 -114.90620 5952 ft 255 kts 26°
2026-05-07 17:02 36.03818 -114.90173 5761 ft 248 kts 358°
2026-05-07 17:03 36.05398 -114.90806 5669 ft 233 kts 332°
2026-05-07 17:03 36.06659 -114.91964 5493 ft 223 kts 311°
2026-05-07 17:03 36.07276 -114.93682 5184 ft 216 kts 280°
2026-05-07 17:03 36.07334 -114.95436 4904 ft 194 kts 272°
2026-05-07 17:04 36.07347 -114.97030 4615 ft 178 kts 272°
2026-05-07 17:04 36.07356 -114.98517 4326 ft 169 kts 272°
2026-05-07 17:04 36.07359 -114.99949 4124 ft 164 kts 272°
2026-05-07 17:04 36.07361 -115.01342 3877 ft 160 kts 271°
2026-05-07 17:05 36.07360 -115.02702 3631 ft 157 kts 271°
2026-05-07 17:05 36.07349 -115.04056 3379 ft 158 kts 271°
2026-05-07 17:05 36.07352 -115.05399 3182 ft 155 kts 272°
2026-05-07 17:05 36.07385 -115.06716 2984 ft 152 kts 271°
2026-05-07 17:06 36.07384 -115.08024 2810 ft 153 kts 269°
2026-05-07 17:06 36.07374 -115.09339 2664 ft 153 kts 270°
2026-05-07 17:06 36.07375 -115.10651 2442 ft 153 kts 269°
2026-05-07 17:06 36.07367 -115.11955 2214 ft 150 kts 270°
2026-05-07 17:07 36.07364 -115.13228 2082 ft 140 kts 270°
2026-05-07 17:07 36.07365 -115.14198 2110 ft 79 kts 270°
2026-05-07 17:07 36.07365 -115.14594 2122 ft 36 kts 270°
2026-05-07 17:07 36.07391 -115.14846 2129 ft 27 kts 288°
2026-05-07 17:08 36.07464 -115.15034 2130 ft 24 kts 300°
2026-05-07 17:08 36.07587 -115.15165 2134 ft 24 kts 334°
2026-05-07 17:08 36.07739 -115.15250 2137 ft 23 kts 335°
2026-05-07 17:08 36.07850 -115.15296 2140 ft 15 kts 15°
2026-05-07 17:09 36.07879 -115.15166 2133 ft 20 kts 90°
2026-05-07 17:09 36.07870 -115.14976 2128 ft 22 kts 95°
2026-05-07 17:09 36.07858 -115.14799 2120 ft 13 kts 93°
2026-05-07 17:09 36.07917 -115.14741 2116 ft 12 kts 346°
2026-05-07 17:10 36.07996 -115.14784 2115 ft 14 kts 335°
2026-05-07 17:10 36.08080 -115.14806 2115 ft 10 kts 34°
2026-05-07 17:10 36.08098 -115.14779 2118 ft 0 kts 56°
2026-05-07 17:10 36.08100 -115.14775 2118 ft 2 kts 56°
2026-05-07 17:11 36.08102 -115.14771 2118 ft 0 kts 56°